STARLINK-34592

Last updated on Sat Aug 02 2025 00:02:05 GMT+0000 (Coordinated Universal Time)

1 64746U 25144Y 25213.58335648 -.01597152 00000+0 -38961-1 0 9997 2 64746 53.1597 124.7030 0000883 98.1948 287.4572 15.43580419 5992
UTC large
Height (km)
Speed (km/s)
/
Latitude / Longitude
Inclination (degrees)
Orbital Period (minutes)
Azimuth
Elevation
Range (km)
Doppler Factor

Next 0 passes for location: London (51.5072 / 0.1276)

Sorry there are no passes over London.